Flag for Hungary Weather past 2 weeks in Sopron, Hungary

Now
82 °F

Warm.


Feels Like: 82 °F
Forecast: 67 / 91 °F
Wind: 3 mph from Northwest

Location: Eisenstadt

Current Time: Aug 5, 2015 at 11:16:36 AM

Latest Report: Aug 5, 2015 at 10:00 AM


Visibility: N/A

Pressure: 30.01 "Hg

Humidity: 47%

Dew point: 59 °F

Location of SopronLocation

Historic Weather in Sopron — Graph

°F

Sopron temperature yesterday

Maximum temperature yesterday: 89 °F (at 4:00 PM)
Minimum temperature yesterday: 65 °F (at 5:00 AM)
Average temperature yesterday: 77 °F

Past Weeks' High & Low Weather Summary

 TemperatureHumidityPressure
High97 °F (Jul 22, 4:00 PM)96% (Jul 29, 11:00 PM)30.10 "Hg (Jul 29, 11:00 PM)
Low54 °F (Aug 1, 5:00 AM)29% (Jul 31, 6:00 PM)29.67 "Hg (Jul 25, 3:00 PM)
Average72 °F65%29.90 "Hg
* Reported Jul 21 10:00 AM — Aug 5 10:00 AM, Sopron, Weather by CustomWeather, © 2015

Note: Actual official high and low records may vary slightly from our data, if they occured in-between our weather recording intervals... More about our weather records

Advertising

Sopron weather history for previous 24 hours

 ConditionsComfort  
Time TempWeatherWind HumidityBarometerVisibility
10:00 AM
Wed, Aug 5
82 °FWarm.3 mph47%30.01 "HgN/A
9:00 AM79 °FWarm.8 mph50%30.00 "HgN/A
8:00 AM77 °FWarm.8 mph51%29.99 "HgN/A
7:00 AM76 °FScattered clouds.9 mph51%29.98 "Hg12 mi
4:00 AM76 °FPassing clouds.5 mph56%29.97 "Hg12 mi
3:00 AM71 °FMild.1 mph77%29.96 "HgN/A
2:00 AM70 °FPassing clouds.3 mph82%29.94 "Hg12 mi
1:00 AM70 °FMild.3 mph83%29.94 "HgN/A
10:00 PM
Tue, Aug 4
74 °FMild.2 mph77%29.92 "HgN/A
9:00 PM77 °FWarm.2 mph68%29.90 "HgN/A
8:00 PM84 °FPassing clouds.3 mph54%29.88 "Hg12 mi
7:00 PM86 °FPassing clouds.5 mph48%29.87 "Hg12 mi
6:00 PM88 °FHot.5 mph43%29.86 "HgN/A
5:00 PM89 °FHot.6 mph40%29.87 "HgN/A
4:00 PM89 °FHot.6 mph41%29.89 "HgN/A
3:00 PM88 °FHot.6 mph41%29.90 "HgN/A
2:00 PM86 °FScattered clouds.6 mph47%29.92 "Hg7 mi
1:00 PM86 °FWarm.6 mph51%29.93 "HgN/A
12:00 PM82 °FWarm.6 mph60%29.95 "HgN/A
11:00 AM80 °FPassing clouds.2 mph62%29.97 "Hg9 mi
Weather by CustomWeather, © 2015

See weather overviewHow to use our weather pages